TimeMST,TemperatureF,Dew PointF,Humidity,Sea Level PressureIn,VisibilityMPH,Wind Direction,Wind SpeedMPH,Gust SpeedMPH,PrecipitationIn,Events,Conditions,WindDirDegrees,DateUTC
12:53 AM,3.0,-2.0,80,30.16,10.0,WSW,8.1,-,N/A,,Clear,240,2011-11-20 07:53:00
1:53 AM,8.1,3.0,80,30.14,10.0,WSW,8.1,-,N/A,,Clear,250,2011-11-20 08:53:00
2:53 AM,9.0,5.0,84,30.15,10.0,West,8.1,-,N/A,,Clear,260,2011-11-20 09:53:00
3:53 AM,10.9,8.1,88,30.15,10.0,West,6.9,-,N/A,,Clear,260,2011-11-20 10:53:00
4:53 AM,12.9,9.0,84,30.16,10.0,WSW,9.2,-,N/A,,Clear,250,2011-11-20 11:53:00
5:53 AM,15.1,9.0,77,30.16,10.0,West,11.5,-,N/A,,Clear,260,2011-11-20 12:53:00
6:53 AM,16.0,10.0,77,30.18,10.0,West,9.2,-,N/A,,Clear,260,2011-11-20 13:53:00
7:53 AM,19.0,12.0,74,30.19,10.0,West,6.9,-,N/A,,Clear,260,2011-11-20 14:53:00
8:53 AM,23.0,15.1,72,30.19,10.0,Calm,Calm,-,N/A,,Clear,0,2011-11-20 15:53:00
9:53 AM,25.0,14.0,63,30.19,10.0,West,6.9,-,N/A,,Clear,270,2011-11-20 16:53:00
10:53 AM,28.0,16.0,61,30.17,10.0,West,8.1,-,N/A,,Clear,260,2011-11-20 17:53:00
11:53 AM,28.9,17.1,61,30.15,10.0,SW,5.8,-,N/A,,Clear,230,2011-11-20 18:53:00
12:53 PM,28.9,16.0,58,30.12,10.0,West,8.1,-,N/A,,Clear,260,2011-11-20 19:53:00
1:53 PM,30.0,16.0,56,30.09,10.0,West,6.9,-,N/A,,Clear,260,2011-11-20 20:53:00
2:53 PM,30.0,18.0,61,30.07,10.0,WSW,6.9,-,N/A,,Clear,250,2011-11-20 21:53:00
3:53 PM,27.0,19.0,72,30.08,10.0,Calm,Calm,-,N/A,,Clear,0,2011-11-20 22:53:00
4:53 PM,25.0,19.9,81,30.09,10.0,WSW,5.8,-,N/A,,Clear,240,2011-11-20 23:53:00
5:53 PM,25.0,19.9,81,30.09,10.0,SW,6.9,-,N/A,,Clear,230,2011-11-21 00:53:00
6:53 PM,26.1,21.0,81,30.07,10.0,WSW,5.8,-,N/A,,Clear,240,2011-11-21 01:53:00
7:53 PM,26.1,21.0,81,30.05,10.0,West,6.9,-,N/A,,Clear,260,2011-11-21 02:53:00
8:53 PM,26.1,21.9,84,30.04,10.0,West,6.9,-,N/A,,Clear,260,2011-11-21 03:53:00
9:53 PM,26.1,21.9,84,30.03,10.0,WSW,4.6,-,N/A,,Clear,240,2011-11-21 04:53:00
10:53 PM,26.1,21.9,84,30.03,10.0,Calm,Calm,-,N/A,,Clear,0,2011-11-21 05:53:00
11:53 PM,27.0,24.1,89,30.03,10.0,West,4.6,-,N/A,,Clear,270,2011-11-21 06:53:00